When you browse on this site, cookies collect data to enhance your experience and personalize the content and advertising you see.
Visit our Privacy Policy to learn more. By continuing to use the site, you agree to this use of cookies and data.
  • In Romania
  • List of Countries
  • For 7 days
  • Water Temperature
  • Weather Map
  • Weather Widgets
  • user-avatar
    Login

    Hourly Weather Dodoma

    Today, 30 March, Monday

    Time Temperature Precipitation Wind Pressure Humidity
    00:00 +20°C° 0 mm 1 mps 665 mmHg 93%
    01:00 +20°C° 0 mm 1 mps 665 mmHg 94%
    02:00 +19°C° 0 mm 2 mps 665 mmHg 94%
    03:00 +20°C° 0 mm 1 mps 664 mmHg 95%
    04:00 +19°C° 0 mm 1 mps 664 mmHg 96%
    05:00 +19°C° 0 mm 1 mps 664 mmHg 97%
    06:00 +20°C° 0 mm 1 mps 665 mmHg 95%
    07:00 +21°C° 0 mm 1 mps 666 mmHg 92%
    08:00 +22°C° 0 mm 1 mps 667 mmHg 90%
    09:00 +24°C° 0.1 mm 1 mps 667 mmHg 83%
    10:00 +26°C° 0.1 mm 1 mps 667 mmHg 76%
    11:00 +27°C° 0.1 mm 1 mps 666 mmHg 69%
    12:00 +28°C° 0 mm 1 mps 666 mmHg 66%
    13:00 +29°C° 0 mm 1 mps 666 mmHg 64%
    14:00 +30°C° 0 mm 1 mps 665 mmHg 61%
    15:00 +28°C° 0.1 mm 1 mps 665 mmHg 66%
    16:00 +27°C° 0.1 mm 1 mps 664 mmHg 71%
    17:00 +26°C° 0.1 mm 1 mps 664 mmHg 76%
    18:00 +25°C° 1 mm 2 mps 664 mmHg 81%
    19:00 +24°C° 1 mm 2 mps 665 mmHg 86%
    20:00 +21°C° 1 mm 2 mps 665 mmHg 91%
    21:00 +21°C° 0.4 mm 2 mps 665 mmHg 92%
    22:00 +21°C° 0.4 mm 2 mps 665 mmHg 93%
    23:00 +20°C° 0.4 mm 3 mps 665 mmHg 94%

    Tomorrow, 31 March, Tuesday

    Time Temperature Precipitation Wind Pressure Humidity
    00:00 +20°C° 0.3 mm 2 mps 665 mmHg 95%
    01:00 +20°C° 0.3 mm 2 mps 665 mmHg 95%
    02:00 +19°C° 0.3 mm 2 mps 665 mmHg 96%
    03:00 +19°C° 0 mm 2 mps 665 mmHg 96%
    04:00 +19°C° 0 mm 2 mps 665 mmHg 97%
    05:00 +20°C° 0 mm 1 mps 665 mmHg 97%
    06:00 +20°C° 0 mm 2 mps 666 mmHg 93%
    07:00 +21°C° 0 mm 2 mps 667 mmHg 90%
    08:00 +23°C° 0 mm 2 mps 667 mmHg 86%
    09:00 +25°C° 0 mm 2 mps 667 mmHg 80%
    10:00 +26°C° 0 mm 2 mps 667 mmHg 73%
    11:00 +28°C° 0 mm 2 mps 667 mmHg 67%
    12:00 +28°C° 0.1 mm 2 mps 666 mmHg 64%
    13:00 +29°C° 0.1 mm 2 mps 666 mmHg 62%
    14:00 +29°C° 0.1 mm 2 mps 665 mmHg 60%
    15:00 +28°C° 0.2 mm 2 mps 665 mmHg 65%
    16:00 +27°C° 0.2 mm 2 mps 665 mmHg 70%
    17:00 +27°C° 0.2 mm 1 mps 664 mmHg 75%
    18:00 +25°C° 0.3 mm 1 mps 665 mmHg 80%
    19:00 +24°C° 0.3 mm 1 mps 665 mmHg 84%
    20:00 +23°C° 0.3 mm 1 mps 666 mmHg 88%
    21:00 +21°C° 0.2 mm 2 mps 666 mmHg 90%
    22:00 +21°C° 0.2 mm 2 mps 666 mmHg 92%
    23:00 +21°C° 0.2 mm 2 mps 666 mmHg 95%

    Day after tomorrow, 1 April, Wednesday

    Time Temperature Precipitation Wind Pressure Humidity
    00:00 +20°C° 0 mm 2 mps 665 mmHg 95%
    01:00 +20°C° 0 mm 2 mps 665 mmHg 96%
    02:00 +20°C° 0 mm 2 mps 665 mmHg 96%
    03:00 +20°C° 0 mm 2 mps 665 mmHg 96%
    04:00 +19°C° 0 mm 2 mps 665 mmHg 97%
    05:00 +19°C° 0 mm 2 mps 665 mmHg 97%
    06:00 +20°C° 0 mm 2 mps 666 mmHg 93%
    07:00 +23°C° 0 mm 2 mps 667 mmHg 89%
    08:00 +24°C° 0 mm 2 mps 668 mmHg 86%
    09:00 +25°C° 0.5 mm 2 mps 668 mmHg 79%
    10:00 +27°C° 0.5 mm 2 mps 667 mmHg 73%
    11:00 +29°C° 0.5 mm 2 mps 667 mmHg 66%
    12:00 +29°C° 0.2 mm 1 mps 667 mmHg 63%
    13:00 +30°C° 0.2 mm 1 mps 666 mmHg 60%
    14:00 +30°C° 0.2 mm 1 mps 666 mmHg 57%
    15:00 +29°C° 0.6 mm 1 mps 665 mmHg 64%
    16:00 +28°C° 0.6 mm 1 mps 665 mmHg 71%
    17:00 +26°C° 0.6 mm 1 mps 664 mmHg 79%
    18:00 +25°C° 0.1 mm 2 mps 665 mmHg 81%
    19:00 +24°C° 0.1 mm 2 mps 665 mmHg 84%
    20:00 +23°C° 0.1 mm 2 mps 665 mmHg 87%
    21:00 +23°C° 0 mm 2 mps 665 mmHg 87%
    22:00 +21°C° 0 mm 2 mps 665 mmHg 88%
    23:00 +21°C° 0 mm 2 mps 665 mmHg 89%

    2 April, Thursday

    Time Temperature Precipitation Wind Pressure Humidity
    00:00 +21°C° 0 mm 2 mps 665 mmHg 90%
    01:00 +21°C° 0 mm 2 mps 665 mmHg 90%
    02:00 +20°C° 0 mm 2 mps 664 mmHg 91%
    03:00 +20°C° 0 mm 2 mps 664 mmHg 92%
    04:00 +21°C° 0 mm 1 mps 665 mmHg 93%
    05:00 +21°C° 0 mm 1 mps 665 mmHg 93%
    06:00 +22°C° 0 mm 1 mps 665 mmHg 90%
    07:00 +23°C° 0 mm 1 mps 666 mmHg 87%
    08:00 +24°C° 0 mm 2 mps 667 mmHg 83%
    09:00 +26°C° 0.2 mm 2 mps 667 mmHg 77%
    10:00 +27°C° 0.2 mm 2 mps 667 mmHg 70%
    11:00 +29°C° 0.2 mm 2 mps 666 mmHg 64%
    12:00 +29°C° 0.6 mm 2 mps 666 mmHg 63%
    13:00 +29°C° 0.6 mm 1 mps 665 mmHg 63%
    14:00 +29°C° 0.6 mm 1 mps 664 mmHg 63%
    15:00 +28°C° 2 mm 1 mps 664 mmHg 70%
    16:00 +27°C° 2 mm 1 mps 664 mmHg 77%
    17:00 +26°C° 2 mm 1 mps 664 mmHg 83%
    18:00 +25°C° 1.1 mm 1 mps 664 mmHg 85%
    19:00 +24°C° 1.1 mm 2 mps 664 mmHg 87%
    20:00 +23°C° 1.1 mm 2 mps 665 mmHg 89%
    21:00 +23°C° 0.2 mm 2 mps 665 mmHg 90%
    22:00 +21°C° 0.2 mm 2 mps 665 mmHg 91%
    23:00 +21°C° 0.2 mm 2 mps 665 mmHg 93%

    3 April, Friday

    Time Temperature Precipitation Wind Pressure Humidity
    00:00 +21°C° 0.9 mm 2 mps 665 mmHg 93%
    01:00 +20°C° 0.9 mm 2 mps 665 mmHg 94%
    02:00 +20°C° 0.9 mm 2 mps 664 mmHg 94%
    03:00 +21°C° 0.7 mm 1 mps 664 mmHg 95%
    04:00 +21°C° 0.7 mm 1 mps 665 mmHg 96%
    05:00 +20°C° 0.7 mm 1 mps 665 mmHg 97%
    06:00 +21°C° 0.4 mm 1 mps 665 mmHg 96%
    07:00 +21°C° 0.4 mm 1 mps 666 mmHg 95%
    08:00 +21°C° 0.4 mm 1 mps 667 mmHg 94%
    09:00 +21°C° 0.4 mm 1 mps 667 mmHg 93%
    10:00 +22°C° 0.4 mm 1 mps 667 mmHg 92%
    11:00 +21°C° 0.4 mm 2 mps 666 mmHg 90%
    12:00 +21°C° 0.1 mm 2 mps 666 mmHg 89%
    13:00 +22°C° 0.1 mm 1 mps 665 mmHg 88%
    14:00 +23°C° 0.1 mm 1 mps 665 mmHg 86%
    15:00 +22°C° 0.2 mm 1 mps 665 mmHg 88%
    16:00 +20°C° 0.2 mm 0 mps 665 mmHg 90%
    17:00 +20°C° 0.2 mm 0 mps 665 mmHg 92%
    18:00 +22°C° 0.3 mm 1 mps 665 mmHg 93%
    19:00 +21°C° 0.3 mm 1 mps 666 mmHg 93%
    20:00 +20°C° 0.3 mm 2 mps 666 mmHg 94%
    21:00 +21°C° 0.1 mm 1 mps 666 mmHg 94%
    22:00 +21°C° 0.1 mm 1 mps 666 mmHg 95%
    23:00 +20°C° 0.1 mm 1 mps 666 mmHg 95%

    4 April, Saturday

    Time Temperature Precipitation Wind Pressure Humidity
    00:00 +20°C° 0 mm 1 mps 666 mmHg 95%
    01:00 +20°C° 0 mm 1 mps 665 mmHg 96%
    02:00 +19°C° 0 mm 1 mps 665 mmHg 96%
    03:00 +19°C° 0 mm 1 mps 665 mmHg 96%
    04:00 +19°C° 0 mm 1 mps 665 mmHg 95%
    05:00 +19°C° 0 mm 1 mps 665 mmHg 95%
    06:00 +20°C° 0 mm 1 mps 666 mmHg 92%
    07:00 +21°C° 0 mm 1 mps 667 mmHg 88%
    08:00 +22°C° 0 mm 1 mps 667 mmHg 85%
    09:00 +24°C° 0 mm 1 mps 667 mmHg 78%
    10:00 +26°C° 0 mm 1 mps 668 mmHg 71%
    11:00 +28°C° 0 mm 1 mps 668 mmHg 63%
    12:00 +28°C° 0 mm 1 mps 667 mmHg 63%
    13:00 +26°C° 0 mm 0 mps 666 mmHg 62%
    14:00 +27°C° 0 mm 0 mps 666 mmHg 61%
    15:00 +26°C° 0.1 mm 0 mps 665 mmHg 65%
    16:00 +25°C° 0.1 mm 0 mps 665 mmHg 70%
    17:00 +26°C° 0.1 mm 1 mps 665 mmHg 74%
    18:00 +25°C° 0.2 mm 1 mps 665 mmHg 79%
    19:00 +23°C° 0.2 mm 1 mps 665 mmHg 83%
    20:00 +21°C° 0.2 mm 2 mps 665 mmHg 88%
    21:00 +21°C° 0 mm 2 mps 665 mmHg 89%
    22:00 +20°C° 0.1 mm 2 mps 665 mmHg 91%
    23:00 +20°C° 0.1 mm 2 mps 665 mmHg 93%
    Show more